Regional Weather Roundup
Issued by NWS Cleveland, OH

Home | Current Version | Previous Version | Graphics & Text | Print | Product List | Glossary On
Versions: 1 2 3 4 5 6 7 8 9 10 11 12 13 14 15 16 17 18 19 20 21 22 23 24 25 26 27 28 29 30 31 32 33 34 35 36 37 38 39 40 41 42 43 44 45 46 47 48 49 50
000
ASUS41 KCLE 192210
RWRCLE
OHIO REGIONAL WEATHER ROUNDUP
NATIONAL WEATHER SERVICE WILMINGTON, OH
500 PM EST SUN NOV 19 2017

NOTE: "FAIR" INDICATES FEW OR NO CLOUDS BELOW 12,000 FEET WITH NO
SIGNIFICANT WEATHER AND/OR OBSTRUCTIONS TO VISIBILITY.

OHZ001>008-015>018-024>027-034-035-043-044-192300-
   NORTHWEST OHIO

CITY           SKY/WX    TMP DP  RH WIND       PRES   REMARKS
DEFIANCE       CLOUDY    33  23  66 W12G18    29.99R WCI  24
FINDLAY        CLOUDY    35  21  56 W21G26    29.97R WCI  24
TOLEDO EXPRESS CLOUDY    34  27  75 W9G20     29.96R WCI  27
TOLEDO EXEC    CLOUDY    35  23  61 W20G28    29.97R WCI  24
LIMA           CLOUDY    33  28  81 W16       29.99R WCI  23
$$

OHZ009>014-019>023-028>033-038-089-192300-
   NORTHEAST OHIO

CITY           SKY/WX    TMP DP  RH WIND       PRES   REMARKS
CLE-HOPKINS    LGT SNOW  34  29  82 W15G21    29.93R WCI  24
CLE-LAKEFRONT  CLOUDY    38  27  64 W28G37    29.88R
CUY CO. ARPT   CLOUDY    37  30  75 W14G23    29.87R
LORAIN-ELYRIA  CLOUDY    34  22  61 W14G30    29.92R WCI  25
ASHTABULA      CLOUDY    35  28  75 W13G20    29.84R WCI  26
AKRON-CANTON   FLURRIES  36  25  64 NW16G26   29.88R
WOOSTER        CLOUDY    34  25  69 W21G30    29.92R WCI  22
MANSFIELD      CLOUDY    33  23  66 W14G24    29.92R WCI  23
YOUNGSTOWN     LGT SNOW  33  31  92 W10       29.85R FOG     WCI  25
$$

OHZ042-051>053-060>062-070>072-077>081-192300-
  SOUTHWEST OHIO

CITY           SKY/WX    TMP DP  RH WIND       PRES   REMARKS
CINC-COVINGTON FAIR      36  25  64 W17       30.06R
CINC-LUNKEN    FAIR      38  25  59 W17       30.09R
HAMILTON       MOCLDY    36  25  64 W12       30.08R
DAYTON         CLOUDY    31  24  75 W15       30.05R WCI  20
WRIGHT-PAT AFB CLOUDY    32  21  62 W13G26    30.05R WCI  23
DAYTON GENERAL CLOUDY    33  22  63 NW15G22   30.04R WCI  23
WILMINGTON     MOCLDY    33  24  69 W17G28    30.03R WCI  22
$$

OHZ036-037-039>041-045>050-054>059-063>069-073>076-082>088-192300-
  CENTRAL AND SOUTHEAST OHIO

CITY           SKY/WX    TMP DP  RH WIND       PRES   REMARKS
COLUMBUS       CLOUDY    36  24  62 W17G26    30.00R
OSU AIRPORT    CLOUDY    34  26  72 W18G25    30.00R WCI  23
BOLTON FIELD   CLOUDY    34  25  69 NW17      30.01R WCI  23
RICKENBACK AFB CLOUDY    36  26  66 W18       30.01R
NEWARK         CLOUDY    37  23  56 W20G26    29.97R
MARION         CLOUDY    34  26  72 NW10      29.97R WCI  26
LANCASTER      CLOUDY    37  26  64 W12G22    30.00R
ZANESVILLE     CLOUDY    38  25  59 W12G28    29.95R
NEW PHILLY     FLURRIES  36  29  75 W14G23    29.93R
$$




USA.gov is the U.S. government's official web portal to all federal, state and local government web resources and services.